EGPE

Inverness Airport

Airport
ICAO code
EGPE
IATA Code
INV
Summary
ICAO Region
EUR
ICAO Territory
Location

Dalcross, Scotland

Serving
Inverness
Elevation
30 ft
Coordinates
57° 32' 33" N , 4° 2' 51" W
KCC
Metar
EGPE 240620Z 24004KT 9999 SCT020 BKN038 00/M00 Q0990

Description

Small regional airport serving Inverness and the Central Highlands of Scotland.

Climatology

Temperate Marine climate/Oceanic climate (Köppen climate classification Cfb). Moderately cool summer and comparatively warm winter with a temperature range of only 14°C. Prevailing south-westerly winds from the Atlantic Ocean.

Runways

Designator Length Width Surface Rops
12/30 700 18 ASP Yes/Yes
5/23 1887 46 ASP Yes/Yes

Airport map

Aerial View

SKYbrary Partners:

Safety knowledge contributed by: